TIANWANG 1B (TW-1B)
1 40927U 15051C   19218.73424148  .00007071  00000-0  10750-3 0  9999
2 40927  97.1345 264.1316 0008011 187.0442 312.6681 15.54827602217638
TIANWANG 1A (TW-1A)
1 40928U 15051D   19218.40041527  .00001839  00000-0  46590-4 0  9998
2 40928  97.1427 248.6251 0009396 254.5764 231.3349 15.40970298216675
LAPAN A2
1 40931U 15052B   19215.07574832 +.00000640 +00000-0 +41238-7 0  9999
2 40931 005.9990 092.8905 0012958 075.9377 284.2056 14.76610632207986
LQSAT
1 40958U 15057A   19218.19884569 -.00000007  00000-0  65776-5 0  9999
2 40958  97.8959 286.0783 0019617  86.3492 273.9959 14.73085334205947
CHUBUSAT 2
1 41338U 16012B   19218.19756979  .00000269  00000-0  14179-4 0  9996
2 41338  31.0019 196.5070 0013854 223.6628 136.2912 15.00163775190204
CHUBUSAT 3
1 41339U 16012C   19218.36098032  .00000191  00000-0  80583-5 0  9992
2 41339  31.0095 193.5016 0013544 233.5685 126.3699 15.00338117190223
OUFTI-1
1 41458U 16025C   19218.22956979  .00001053  00000-0  57600-4 0  9997
2 41458  98.1017 307.5438 0166051 193.3836 166.2959 15.05884922179876
E-STAR-2
1 41459U 16025D   19218.39053261  .00001967  00000-0  10399-3 0  9995
2 41459  98.1026 307.3459 0167733 194.4510 165.1889 15.05524698179878
AAUSAT 4
1 41460U 16025E   19218.23893579  .00001283  00000-0  68005-4 0  9993
2 41460  98.0973 308.5498 0157789 186.9946 172.9092 15.07429345179984
NUSAT 1
1 41557U 16033B   19218.52865277  .00001097  00000-0  43712-4 0  9996
2 41557  97.4178 305.7463 0015299 122.0650 238.2077 15.27286372177546
BEESAT 4
1 41619U 16040W   19218.45785210  .00001210  00000-0  54053-4 0  9990
2 41619  97.3643 279.7667 0010565 204.0677 156.0067 15.23205641161284
PRATHAM
1 41783U 16059A   19217.74842966 +.00000020 +00000-0 +13152-4 0  9998
2 41783 098.0641 276.2609 0032522 231.3933 128.4356 14.63002306152577
ALSAT 1N
1 41789U 16059G   19218.44780747  .00000067  00000-0  21771-4 0  9997
2 41789  98.0672 279.0459 0027572 218.3477 141.5769 14.64253540152784
NAYIF 1
1 42017U 17008BX  19218.23527130  .00001304  00000-0  54132-4 0  9991
2 42017  97.4002 284.8239 0006359  14.5257 345.6163 15.25615162137329
MAX VALIER SAT
1 42778U 17036P   19218.37606892  .00000847  00000-0  39939-4 0  9993
2 42778  97.3509 274.9620 0013824  58.4702 301.7882 15.22071930117645
